User: anonymous   Login
Location: Albany
(35.0000°S, 118.0000°E)
Time: 05:06:18
(UTC-04:00)
Language:

Transit 2A - Orbit

View from above orbital plane
View from above orbital plane
View from above satellite
View from above satellite

Ground track
Ground track

The orbit data is extracted from the following two-line orbital elements,

1 00045U 60007A   15143.22143332  .00000197  00000-0  75487-4 0  9998
2 00045 066.6948 221.0885 0261725 224.8599 133.1083 14.33348758857216
Epoch (UTC): 23 May 2015 05:18:51
Eccentricity: 0.0261725
inclination: 66.6948°
perigee height: 593 km
apogee height: 968 km
right ascension of ascending node: 221.0885°
argument of perigee: 224.8599°
revolutions per day: 14.33348758
mean anomaly at epoch: 133.1083°
orbit number at epoch: 85721

The dashed part of the orbit path shows where the satellite is in the earth's shadow,  

DLR